Cloud_Cover
100 100 100 100 100 100 100 100 100 100 92 100 100 100 100 36 100 100 96 100 100 100 70 6 100 86 99 95 84 72 93 36 64 6 3 0 0 0 8 4 6 2 0 0 0 1 0
100 100 100 90 100 100 100 100 100 100 100 100 100 100 100 71 100 100 100 99 100 76 100 100 95 100 100 100 78 87 14 5 5 3 0 0 0 0 9 5 12 4 2 2 1 1 5
100 100 100 100 100 100 85 100 100 100 93 100 100 100 100 36 100 100 100 100 99 100 100 53 100 100 100 100 100 93 50 5 0 0 1 5 5 5 5 27 49 16 6 7 17 5 7
100 100 100 100 100 100 100 100 100 100 88 100 100 100 100 100 100 100 100 100 100 100 100 99 100 100 100 100 100 89 5 3 5 6 5 10 5 29 80 86 20 20 100 84 0 4 0
100 100 95 100 100 100 100 100 100 100 100 100 100 100 100 100 100 100 100 63 100 100 100 93 100 100 100 100 79 5 5 15 99 87 100 91 11 52 97 94 93 44 38 93 5 5 0
100 100 100 100 100 100 100 100 100 100 100 100 100 98 22 100 100 100 100 100 100 100 100 93 100 100 100 100 98 26 6 22 17 80 64 76 89 100 98 100 100 99 100 46 7 5 0
100 100 100 100 100 100 100 100 100 100 100 100 100 100 100 100 100 100 100 100 100 100 100 100 100 100 100 100 99 34 5 5 58 100 100 99 100 100 100 94 68 100 100 23 5 3 2
100 100 100 100 100 100 100 99 100 100 100 68 100 98 89 100 100 100 100 100 100 100 100 100 100 100 100 100 97 62 46 8 56 92 84 96 98 96 100 100 100 100 100 100 100 100 6
100 100 98 90 100 100 91 77 93 84 100 88 16 94 52 100 100 100 100 100 100 100 100 100 100 100 100 96 8 9 20 61 69 88 19 99 97 100 100 100 100 100 100 100 100 99 100
100 100 100 100 57 70 38 74 40 38 76 94 5 26 5 100 100 100 100 100 100 100 100 100 100 100 100 68 60 86 65 53 45 82 47 50 95 100 100 100 100 100 100 100 100 100 100
100 100 82 8 53 55 85 100 99 98 90 3 5 19 11 100 100 100 100 100 100 100 100 100 100 100 100 32 17 100 100 100 90 100 100 45 100 100 100 100 91 100 78 100 100 100 100
100 21 99 65 100 100 99 53 95 89 26 8 5 84 100 93 100 100 100 100 100 100 100 100 100 100 62 37 52 91 100 100 100 100 100 96 95 100 85 69 89 100 100 100 100 100 100
95 66 97 100 100 100 100 100 100 100 100 100 100 100 100 100 100 100 100 100 100 100 100 100 100 62 5 14 12 90 100 100 100 100 78 100 96 90 100 66 38 74 100 100 100 100 100
98 100 100 100 100 99 100 91 79 100 100 100 75 48 100 100 100 100 100 100 100 100 100 100 82 5 5 5 6 87 100 100 100 100 100 80 28 72 99 88 100 100 100 100 100 100 100
100 100 100 98 100 100 84 100 100 100 100 100 100 100 100 100 100 100 100 100 100 100 100 61 5 5 5 5 7 93 100 100 100 100 100 99 100 99 54 60 36 100 94 73 100 100 100
100 100 100 100 100 88 98 100 100 100 100 100 100 90 100 100 100 100 100 100 100 100 30 2 4 2 5 77 87 67 92 100 100 99 100 100 100 100 100 96 65 100 100 100 100 100 100
100 100 100 100 100 91 90 100 100 100 100 100 100 100 100 100 100 100 100 100 100 61 4 1 5 5 4 5 5 17 77 99 100 55 73 53 15 95 85 88 100 100 100 100 100 97 100
100 100 100 100 95 96 24 99 100 100 100 100 100 100 100 100 100 100 100 100 99 82 12 5 1 5 2 5 5 38 34 85 95 7 5 5 97 79 14 62 61 100 99 72 9 52 4
100 100 100 100 100 99 77 46 46 73 100 100 100 100 100 100 100 100 100 93 100 80 5 5 5 4 0 5 5 5 55 40 6 15 7 18 6 50 96 5 5 8 25 99 35 6 17
100 100 100 100 100 100 74 100 99 82 100 100 100 100 100 100 100 100 100 100 100 96 66 5 5 0 4 5 5 5 5 5 5 5 3 0 4 0 4 1 3 45 11 46 12 7 11
100 100 100 100 100 100 100 100 26 9 98 99 100 100 100 100 100 100 90 100 99 99 99 69 6 5 0 4 5 5 3 3 0 0 0 0 2 5 5 5 4 0 2 0 3 5 4
100 100 100 100 100 100 100 97 100 68 100 100 97 94 77 100 100 61 8 100 100 48 82 71 5 5 2 0 0 0 0 0 4 0 0 0 5 4 5 5 4 0 0 0 0 0 0
100 100 100 100 100 100 100 100 100 100 98 100 100 93 72 98 22 11 98 99 100 73 5 5 5 5 2 1 2 0 5 4 5 3 0 1 5 5 4 0 0 2 1 5 5 1 0
100 100 100 100 100 100 100 100 100 100 100 100 100 96 5 42 5 73 100 100 100 99 18 5 5 5 5 5 5 5 5 5 5 5 4 0 5 6 5 1 3 0 0 0 0 0 2
100 100 100 100 99 6 43 100 100 100 100 100 92 93 4 55 9 94 59 100 100 98 6 5 5 5 5 5 5 5 5 5 5 5 5 5 5 5 5 4 0 0 0 0 0 0 0
100 100 100 100 100 80 13 76 100 100 100 82 52 5 1 4 61 90 39 100 99 96 5 6 6 5 5 5 5 5 5 5 5 5 5 5 6 5 5 5 4 5 2 1 4 0 0
54 75 100 100 100 100 100 99 100 100 100 89 59 16 5 17 83 98 92 45 81 19 5 17 29 47 39 5 5 5 5 5 27 30 29 30 43 15 17 9 6 5 5 35 5 5 5
100 12 100 100 100 100 100 100 100 100 96 96 88 75 42 9 36 85 53 10 38 5 5 5 12 54 93 59 5 5 5 43 57 51 47 68 97 6 98 30 65 93 48 23 5 5 5
46 83 46 100 98 100 100 100 100 100 100 100 40 55 81 50 21 99 98 56 5 5 34 71 33 42 10 67 63 18 18 37 13 25 47 80 40 100 97 34 83 33 58 5 76 11 12